Location: La Brionne
(46.1728°N, 1.7849°E)
Time: 06:43:41
(UTC+00:00)

SL-16 R/B - Pass Details

Date: 16 June 2021
Orbit: 842 x 846 km, 71.0° (Epoch: 02 August)

Event Time Altitude Azimuth Distance (km) Brightness Sun altitude
Rises 21:40:03 0° 228° (SW) 3,389 5.2 -14.1°
Reaches altitude 10° 21:42:37 10° 235° (SW) 2,459 4.6 -14.4°
Maximum altitude 21:47:56 41° 305° (NW) 1,213 3.6 -14.8°
Drops below altitude 10° 21:53:17 10° 15° (NNE) 2,474 5.3 -15.3°
Sets 21:55:53 0° 23° (NNE) 3,413 6.0 -15.5°
